• Processing (Info)

  • MPEC 2005-S80 : 2005 SG26

    The following Minor Planet Electronic Circular may be linked-to from your own Web pages, but must not otherwise be redistributed electronically.

    A form allowing access to any MPEC is at the bottom of this page.


    Read MPEC 2005-S79 Read MPEC 2005-S81


    M.P.E.C. 2005-S80                                Issued 2005 Sept. 30, 19:32 UT
    
         The Minor Planet Electronic Circulars contain information on unusual
             minor planets and routine data on comets.  They are published
       on behalf of Commission 20 of the International Astronomical Union by the
              Minor Planet Center, Smithsonian Astrophysical Observatory,
                              Cambridge, MA 02138, U.S.A.
    
                      Supported in part by the Brinson Foundation
                 Prepared using the Tamkin Foundation Computer Network
    
                                  MPC@CFA.HARVARD.EDU
              URL http://cfa-www.harvard.edu/iau/mpc.html  ISSN 1523-6714
    
                                       2005 SG26
    
    Observations:
         K05S26G* C2005 09 29.29395 23 54 37.11 -02 35 04.7          19.7 V ES080G96
         K05S26G  C2005 09 29.29988 23 54 42.80 -02 35 26.3          19.6 V ES080G96
         K05S26G  C2005 09 29.30580 23 54 48.63 -02 35 48.8          19.5 V ES080G96
         K05S26G  C2005 09 29.31171 23 54 54.39 -02 36 10.8          19.4 V ES080G96
         K05S26G  C2005 09 30.24465 00 12 25.41 -03 38 32.2          20.3 V ES080G96
         K05S26G  C2005 09 30.24655 00 12 27.64 -03 38 40.1          20.5 V ES080G96
         K05S26G  C2005 09 30.24846 00 12 29.70 -03 38 48.6          21.0 V ES080G96
         K05S26G  C2005 09 30.25037 00 12 31.96 -03 38 56.8          20.7 V ES080G96
         K05S26G  C2005 09 30.37894 00 14 59.59 -03 48 06.3                 ES080G96
         K05S26G  C2005 09 30.37994 00 15 00.80 -03 48 10.5                 ES080G96
         K05S26G  C2005 09 30.38190 00 15 03.05 -03 48 19.1          20.3 V ES080G96
    
    Observer details:
    G96 Mt. Lemmon Survey.  Observers S. M. Larson, E. J. Christensen.  Measurers
        E. C. Beshore, E. J. Christensen, G. J. Garradd, A. D. Grauer, R. E. Hill,
        S. M. Larson, R. A. Kowalski, R. H. McNaught, C. M. Casey.  1.5-m
        reflector + CCD.
    
    Orbital elements:
    2005 SG26
    Epoch 2005 Aug. 18.0 TT = JDT 2453600.5                 MPC
    M 343.37751              (2000.0)            P               Q
    n   0.25610469     Peri.  207.86898     +0.84031663     -0.54202279
    a   2.4557889      Node   184.98006     +0.51448398     +0.80258166
    e   0.5901636      Incl.    5.88636     +0.17080459     +0.24914647
    P   3.85           H   26.1           G   0.15           U   8
    Residuals in seconds of arc
    050929 G96  0.8+  0.4-    050930 G96  0.3-  0.1-    050930 G96  0.2-  0.2+
    050929 G96  0.6-  0.3+    050930 G96  0.8+  0.1+    050930 G96  0.4+  0.2+
    050929 G96  0.1+  0.0     050930 G96  0.9-  0.2-    050930 G96  0.2-  0.0
    050929 G96  0.3-  0.2+    050930 G96  0.4+  0.3-
    
    Ephemeris:
    2005 SG26                a,e,i = 2.46, 0.59, 6                   q = 1.0065
    Date    TT    R. A. (2000) Decl.     Delta      r     Elong.  Phase     V
    2005 09 27    23 21.16   -00 30.6    0.0570   1.058   166.5    12.7    20.8
    2005 09 29    23 49.64   -02 15.3    0.0490   1.050   170.8     8.8    20.3
    2005 10 01    00 28.39   -04 32.3    0.0422   1.043   172.4     7.3    19.9
    2005 10 03    01 19.94   -07 19.2    0.0372   1.037   164.3    15.1    19.9
    2005 10 05    02 23.44   -10 09.8    0.0348   1.031   151.0    28.1    20.1
    2005 10 07    03 31.29   -12 17.1    0.0353   1.025   136.3    42.3    20.5
    2005 10 09    04 32.54   -13 15.9    0.0386   1.021   123.3    54.9    21.1
    2005 10 11    05 21.24   -13 22.0    0.0441   1.017   113.3    64.4    21.6
    2005 10 13    05 57.74   -13 02.5    0.0510   1.013   106.2    71.0    22.2
    2005 10 15    06 24.82   -12 34.6    0.0587   1.010   101.5    75.3    22.6
    2005 10 17    06 45.18   -12 06.1    0.0670   1.008    98.3    78.0    23.0
    
    Kyle E. Smalley              (C) Copyright 2005 MPC           M.P.E.C. 2005-S80
    

    Read MPEC 2005-S79 Read MPEC 2005-S81


    MPEC number:

    Enter an MPEC number in one of the following forms:

    • 1997-B01 (the full form)
    • J97B01 (the packed version of the full form)
    • B01 (the abbreviated form)